星链-2731 (STARLINK-2731 )

导读 | 豆包AI

STARLINK-2731是美国SpaceX公司星链星座的一员,于2021年5月26日发射入轨,属于星链第一代组网卫星。它运行在近地轨道,配备氪离子推进系统用于轨道维持和避碰,依托相控阵天线提供Ku波段通信服务,支撑全球互联网接入覆盖。作为星链大规模低轨星座部署中的组成部分,承担了全球宽带网络的节点功能,设计寿命约5年,退役后会再入大气层完全销毁,减少空间碎片影响。

基本信息
目录编号:
48651
目录名称:
STARLINK-2731
国际标识:
2021-044P
轨道中心:
EARTH
卫星名称:
星链-2731
卫星全名:
星链-2731 (STARLINK-2731 )
卫星状态:
在轨 (已飞行1753 天)
发射日期:
2021-05-26 UTC
国别 :
美国 (US)
星等 :
--
轨道信息
数据来源 国际轨道数据
星历时间: 2026-03-14T14:28:19+0800
10小时前
查看轨道信息
半长轴: 6853.372km
偏心率: 0.0001458
轨道倾角: 53.160°
近地点辐角 117.755°
升交点赤经 92.605°
平近点角 242.360°
近地点: 474.235km
远地点: 476.235km
周期: 94.106分钟
每日圈数: 15.301935
详细信息
固有亮度:
5
最大亮度:
2.5
卫星平台:
Starlink V1.0
覆盖范围:
全球
运营商:
太空探索技术公司
运营商所在国:
美国
制造商(研发单位):
太空探索技术公司
制造商所在国:
美国
使用方式:
暂无
卫星简介
星链(Starlink)计划是由太空探索技术公司(SpaceX)提出的一个巨型低轨卫星互联网星座项目,计划在2019年至2024年间在太空搭建由约1.2万颗卫星组成的“星链”网络,其中1584颗将部署在地球上空550千米处的近地轨道,并从2020年开始工作。该卫星仍在工作。
2D轨道图
3D轨道图
轨道高度分析图
轨道倾角分析图
轨道综合分析图
查看轨道综合分析图